星链-33701 (STARLINK-33701)

导读 | 豆包AI

STARLINK-33701是美国SpaceX星链星座计划中的一颗卫星,于2025年4月6日成功发射。星链项目旨在构建全球卫星互联网星座,为全球偏远地区、网络基础设施薄弱区域提供高速互联网接入服务,这颗卫星的入轨进一步扩充了星链星座的在轨规模,助力星座覆盖能力与服务稳定性提升。

基本信息
目录编号:
63464
目录名称:
STARLINK-33701
国际标识:
2025-070E
轨道中心:
EARTH
卫星名称:
星链-33701
卫星全名:
星链-33701 (STARLINK-33701)
卫星状态:
在轨 (已飞行342 天)
发射日期:
2025-04-06 UTC
国别 :
美国 (US)
星等 :
--
轨道信息
数据来源 国际轨道数据
星历时间: 2026-03-14T19:21:56+0800
10小时前
查看轨道信息
半长轴: 6861.1km
偏心率: 0.000086
轨道倾角: 42.995°
近地点辐角 179.957°
升交点赤经 233.163°
平近点角 180.129°
近地点: 482.372km
远地点: 483.554km
周期: 94.265分钟
每日圈数: 15.276089
详细信息
固有亮度:
5
最大亮度:
2.5
卫星平台:
Starlink V1.0
覆盖范围:
全球
运营商:
太空探索技术公司
运营商所在国:
美国
制造商(研发单位):
太空探索技术公司
制造商所在国:
美国
使用方式:
暂无
卫星简介
Starlink 计划是 SpaceX 推出的全球卫星互联网项目,通过发射低轨道卫星,为全球尤其是偏远地区提供高速、低延迟的互联网服务。自 2019 年起,Starlink 已部署数千颗卫星,旨在缩小全球数字鸿沟,推动互联网普及。该项目还为军事、航空等行业提供通信支持,带来广泛经济效益。
2D轨道图
3D轨道图
轨道高度分析图
轨道倾角分析图
轨道综合分析图
查看轨道综合分析图